Damascus, Syria

3:12 AM EEST on October 20, 2017 (GMT +0300)
Damascus International

Weather History for OSDI - November, 2013

Change the Weather History Date:

Friday, November 1, 2013

  Actual Average Record
Temperature  
Mean Temperature 58 °F -  
Max Temperature 68 °F 69 °F 86 °F (2012)
Min Temperature 49 °F 39 °F 32 °F (2006)
Degree Days  
Heating Degree Days 6    
Growing Degree Days 8 (Base 50)    
Moisture  
Dew Point 51 °F    
Average Humidity 79    
Maximum Humidity 94    
Minimum Humidity 50    
Precipitation  
Precipitation 0.03 in 0.03 in - ()
Sea Level Pressure  
Sea Level Pressure 30.07 in    
Wind  
Wind Speed 4 mph ()    
Max Wind Speed 23 mph    
Max Gust Speed -    
Visibility 6.6 miles    
Events Rain    
Averages and records for this station are not official NWS values.
T = Trace of Precipitation, MM = Missing Value Source: Averaged Metar Reports

Daily Weather History Graph

Daily Weather History Graph

Search for Another Location

Airport or City:

Trip Planner

Search our weather history database for the weather conditions in past years. The results will help you decide how hot, cold, wet, or windy it might be!

Date:

Astronomy

Nov. 01, 2013 Rise Set
Actual Time 5:52 AM EET 4:42 PM EET
Civil Twilight 5:26 AM EET 5:07 PM EET
Nautical Twilight 4:57 AM EET 5:37 PM EET
Astronomical Twilight 4:28 AM EET 6:06 PM EET
Moon 3:28 AM EET (11/1) 3:17 PM EET (11/1)
Length of Visible Light 11h 40m
Length of Day
10h 49m
Waning Crescent, 6% of the Moon is Illuminated
Nov 1
Waning Crescent
Nov 3
New
Nov 10
First Quarter
Nov 17
Full
Nov 25
Last Quarter

Hourly Weather History & Observations

Time (EET) Temp. Dew Point Humidity Pressure Visibility Wind Dir Wind Speed Gust Speed Precip Events Conditions
12:00 AM 57.2 °F 51.8 °F 82% 30.09 in 6.2 mi Calm Calm - N/A   Scattered Clouds
1:00 AM 57.2 °F 53.6 °F 88% 30.06 in 6.2 mi Calm Calm - N/A   Scattered Clouds
2:00 AM 55 °F 51 °F 81% 29.98 in 9 mi Calm Calm - -   Partly Cloudy
2:00 AM 55.4 °F 51.8 °F 88% 30.06 in 6.2 mi Calm Calm - N/A   Scattered Clouds
3:00 AM 53.6 °F 50.0 °F 88% 30.06 in 6.2 mi Calm Calm - N/A   Scattered Clouds
4:00 AM 51.8 °F 48.2 °F 88% 30.06 in 6.2 mi Calm Calm - N/A   Scattered Clouds
5:00 AM 50.0 °F 48.2 °F 94% 30.06 in 6.2 mi Calm Calm - N/A   Scattered Clouds
6:00 AM 50.0 °F 46.4 °F 87% 30.09 in 6.2 mi WNW 2.3 mph - N/A   Scattered Clouds
7:00 AM 50.0 °F 48.2 °F 94% 30.09 in 6.2 mi Calm Calm - N/A   Scattered Clouds
8:00 AM 54 °F 47 °F 70% 30.07 in 9 mi NW 6.7 mph - -   Scattered Clouds
8:00 AM 53.6 °F 46.4 °F 77% 30.12 in 6.2 mi NW 6.9 mph - N/A   Scattered Clouds
9:00 AM 55.4 °F 53.6 °F 94% 30.12 in 6.2 mi NW 9.2 mph - N/A Rain Rain
10:00 AM 60.8 °F 55.4 °F 82% 30.12 in 6.2 mi NW 11.5 mph - N/A   Scattered Clouds
11:00 AM 62.6 °F 55.4 °F 77% 30.09 in 6.2 mi NW 16.1 mph - N/A   Scattered Clouds
12:00 PM 64.4 °F 53.6 °F 68% 30.09 in 6.2 mi NW 13.8 mph - N/A   Mostly Cloudy
1:00 PM 64.4 °F 53.6 °F 68% 30.06 in 6.2 mi WNW 13.8 mph - N/A   Mostly Cloudy
2:00 PM 67 °F 53 °F 50% 29.98 in 9 mi WNW 11.2 mph - -   Clear
2:00 PM 68.0 °F 53.6 °F 60% 30.06 in 6.2 mi WNW 11.5 mph - N/A   Scattered Clouds
3:00 PM 68.0 °F 50.0 °F 52% 30.04 in 6.2 mi WNW 16.1 mph - N/A   Scattered Clouds
4:00 PM 66.2 °F 53.6 °F 64% 30.04 in 6.2 mi WNW 16.1 mph - N/A   Scattered Clouds
5:00 PM 60.8 °F 48.2 °F 63% 30.06 in 6.2 mi WNW 23.0 mph - N/A   Mostly Cloudy
6:00 PM 57.2 °F 48.2 °F 72% 30.06 in 6.2 mi WNW 11.5 mph - N/A   Scattered Clouds
7:00 PM 55.4 °F 51.8 °F 88% 30.09 in 6.2 mi NW 4.6 mph - N/A Rain Rain
8:00 PM 55 °F 52 °F 88% 30.05 in 9 mi WNW 8.9 mph - -   Clear
8:00 PM 55.4 °F 51.8 °F 88% 30.09 in 6.2 mi WNW 9.2 mph - N/A   Scattered Clouds
9:00 PM 55.4 °F 51.8 °F 88% 30.09 in 6.2 mi Calm Calm - N/A   Scattered Clouds
10:00 PM 55.4 °F 51.8 °F 88% 30.06 in 6.2 mi Calm Calm - N/A   Scattered Clouds
11:00 PM 55.4 °F 51.8 °F 88% 30.09 in 6.2 mi NW 2.3 mph - N/A   Scattered Clouds